• In Romania
  • List of Countries
  • For 7 days
  • Water Temperature
  • Satellite Maps
  • Weather Map
  • Weather Widgets
  • user-avatar
    Login

    Hourly Weather Graz

    Today, 17 August, Friday

    Time Temperature Precipitation Wind Pressure Humidity
    00:00 +18°C° 0 mm 1 mps 724 mmHg 79%
    01:00 +16°C° 0 mm 1 mps 724 mmHg 80%
    02:00 +16°C° 0 mm 1 mps 724 mmHg 81%
    03:00 +16°C° 0 mm 1 mps 724 mmHg 81%
    04:00 +16°C° 0 mm 1 mps 724 mmHg 82%
    05:00 +18°C° 0 mm 1 mps 724 mmHg 78%
    06:00 +19°C° 0 mm 1 mps 724 mmHg 75%
    07:00 +19°C° 0 mm 0 mps 724 mmHg 71%
    08:00 +23°C° 0 mm 1 mps 724 mmHg 62%
    09:00 +26°C° 0 mm 1 mps 725 mmHg 54%
    10:00 +28°C° 0 mm 1 mps 725 mmHg 46%
    11:00 +29°C° 0 mm 1 mps 725 mmHg 43%
    12:00 +30°C° 0 mm 1 mps 725 mmHg 41%
    13:00 +30°C° 0 mm 1 mps 724 mmHg 39%
    14:00 +30°C° 0 mm 1 mps 724 mmHg 42%
    15:00 +29°C° 0 mm 1 mps 724 mmHg 44%
    16:00 +29°C° 0 mm 1 mps 724 mmHg 46%
    17:00 +27°C° 0 mm 1 mps 724 mmHg 54%
    18:00 +23°C° 0 mm 0 mps 723 mmHg 62%
    19:00 +21°C° 0 mm 0 mps 723 mmHg 70%
    20:00 +20°C° 0 mm 0 mps 724 mmHg 72%
    21:00 +21°C° 0 mm 1 mps 724 mmHg 74%
    22:00 +20°C° 0 mm 1 mps 725 mmHg 76%
    23:00 +20°C° 0 mm 1 mps 725 mmHg 77%

    Tomorrow, 18 August, Saturday

    Time Temperature Precipitation Wind Pressure Humidity
    00:00 +20°C° 0 mm 1 mps 725 mmHg 78%
    01:00 +19°C° 0 mm 1 mps 725 mmHg 79%
    02:00 +19°C° 0 mm 1 mps 725 mmHg 79%
    03:00 +19°C° 0 mm 1 mps 725 mmHg 79%
    04:00 +19°C° 0 mm 1 mps 725 mmHg 80%
    05:00 +20°C° 0 mm 1 mps 725 mmHg 77%
    06:00 +21°C° 0 mm 1 mps 726 mmHg 75%
    07:00 +22°C° 0 mm 1 mps 726 mmHg 72%
    08:00 +24°C° 0.1 mm 1 mps 726 mmHg 66%
    09:00 +26°C° 0.1 mm 1 mps 727 mmHg 59%
    10:00 +29°C° 0.1 mm 1 mps 727 mmHg 52%
    11:00 +29°C° 0.4 mm 1 mps 727 mmHg 52%
    12:00 +29°C° 0.4 mm 1 mps 726 mmHg 52%
    13:00 +30°C° 0.4 mm 1 mps 726 mmHg 52%
    14:00 +29°C° 0.5 mm 1 mps 726 mmHg 54%
    15:00 +29°C° 0.5 mm 1 mps 726 mmHg 55%
    16:00 +29°C° 0.5 mm 1 mps 726 mmHg 57%
    17:00 +27°C° 0.5 mm 1 mps 726 mmHg 62%
    18:00 +25°C° 0.5 mm 1 mps 726 mmHg 67%
    19:00 +24°C° 0.5 mm 1 mps 726 mmHg 73%
    20:00 +23°C° 0.2 mm 1 mps 726 mmHg 75%
    21:00 +22°C° 0.2 mm 1 mps 726 mmHg 77%
    22:00 +21°C° 0.2 mm 1 mps 727 mmHg 79%
    23:00 +21°C° 0.1 mm 1 mps 727 mmHg 80%

    Day after tomorrow, 19 August, Sunday

    Time Temperature Precipitation Wind Pressure Humidity
    00:00 +21°C° 0.1 mm 1 mps 727 mmHg 80%
    01:00 +21°C° 0.1 mm 1 mps 727 mmHg 81%
    02:00 +20°C° 0.1 mm 1 mps 727 mmHg 81%
    03:00 +20°C° 0.1 mm 1 mps 727 mmHg 81%
    04:00 +20°C° 0.1 mm 1 mps 727 mmHg 82%
    05:00 +21°C° 0 mm 1 mps 727 mmHg 81%
    06:00 +21°C° 0 mm 1 mps 727 mmHg 79%
    07:00 +22°C° 0 mm 1 mps 728 mmHg 78%
    08:00 +24°C° 0.2 mm 1 mps 728 mmHg 71%
    09:00 +26°C° 0.2 mm 1 mps 728 mmHg 63%
    10:00 +28°C° 0.2 mm 1 mps 728 mmHg 55%
    11:00 +28°C° 0.6 mm 1 mps 728 mmHg 56%
    12:00 +29°C° 0.6 mm 1 mps 727 mmHg 56%
    13:00 +29°C° 0.6 mm 1 mps 727 mmHg 57%
    14:00 +29°C° 0.6 mm 1 mps 727 mmHg 56%
    15:00 +29°C° 0.6 mm 1 mps 726 mmHg 56%
    16:00 +29°C° 0.6 mm 1 mps 726 mmHg 56%
    17:00 +27°C° 0.3 mm 1 mps 726 mmHg 62%
    18:00 +25°C° 0.3 mm 1 mps 726 mmHg 68%
    19:00 +23°C° 0.3 mm 1 mps 726 mmHg 73%
    20:00 +23°C° 0 mm 1 mps 726 mmHg 75%
    21:00 +22°C° 0 mm 1 mps 726 mmHg 77%
    22:00 +21°C° 0 mm 1 mps 727 mmHg 79%
    23:00 +21°C° 0 mm 1 mps 727 mmHg 80%

    20 August, Monday

    Time Temperature Precipitation Wind Pressure Humidity
    00:00 +20°C° 0 mm 1 mps 726 mmHg 81%
    01:00 +20°C° 0 mm 1 mps 726 mmHg 82%
    02:00 +20°C° 0 mm 1 mps 726 mmHg 82%
    03:00 +19°C° 0 mm 1 mps 726 mmHg 83%
    04:00 +19°C° 0 mm 1 mps 726 mmHg 83%
    05:00 +20°C° 0 mm 1 mps 726 mmHg 81%
    06:00 +21°C° 0 mm 1 mps 727 mmHg 79%
    07:00 +22°C° 0 mm 1 mps 727 mmHg 77%
    08:00 +25°C° 0 mm 1 mps 727 mmHg 69%
    09:00 +27°C° 0 mm 1 mps 727 mmHg 61%
    10:00 +29°C° 0 mm 1 mps 728 mmHg 52%
    11:00 +30°C° 0.2 mm 1 mps 727 mmHg 51%
    12:00 +30°C° 0.2 mm 1 mps 727 mmHg 50%
    13:00 +31°C° 0.2 mm 1 mps 726 mmHg 49%
    14:00 +30°C° 0.3 mm 1 mps 726 mmHg 50%
    15:00 +30°C° 0.3 mm 1 mps 726 mmHg 51%
    16:00 +30°C° 0.3 mm 1 mps 726 mmHg 52%
    17:00 +28°C° 0.3 mm 1 mps 726 mmHg 58%
    18:00 +26°C° 0.3 mm 1 mps 726 mmHg 65%
    19:00 +22°C° 0.3 mm 0 mps 726 mmHg 71%
    20:00 +23°C° 0 mm 1 mps 726 mmHg 73%
    21:00 +22°C° 0 mm 1 mps 726 mmHg 75%
    22:00 +22°C° 0 mm 1 mps 726 mmHg 77%
    23:00 +21°C° 0 mm 1 mps 726 mmHg 78%

    21 August, Tuesday

    Time Temperature Precipitation Wind Pressure Humidity
    00:00 +21°C° 0 mm 1 mps 726 mmHg 80%
    01:00 +21°C° 0 mm 1 mps 726 mmHg 81%
    02:00 +20°C° 0 mm 1 mps 726 mmHg 82%
    03:00 +20°C° 0 mm 1 mps 726 mmHg 83%
    04:00 +20°C° 0 mm 1 mps 726 mmHg 84%
    05:00 +21°C° 0 mm 1 mps 727 mmHg 82%
    06:00 +22°C° 0 mm 1 mps 727 mmHg 80%
    07:00 +23°C° 0 mm 1 mps 727 mmHg 78%
    08:00 +25°C° 0.1 mm 1 mps 727 mmHg 70%
    09:00 +27°C° 0.1 mm 1 mps 728 mmHg 62%
    10:00 +30°C° 0.1 mm 1 mps 728 mmHg 54%
    11:00 +30°C° 0.4 mm 1 mps 728 mmHg 53%
    12:00 +31°C° 0.4 mm 1 mps 727 mmHg 53%
    13:00 +31°C° 0.4 mm 1 mps 727 mmHg 52%
    14:00 +31°C° 0.5 mm 1 mps 727 mmHg 54%
    15:00 +31°C° 0.5 mm 1 mps 726 mmHg 55%
    16:00 +28°C° 0.5 mm 0 mps 726 mmHg 56%
    17:00 +28°C° 0.4 mm 1 mps 726 mmHg 61%
    18:00 +26°C° 0.4 mm 1 mps 726 mmHg 67%
    19:00 +24°C° 0.4 mm 1 mps 726 mmHg 72%
    20:00 +24°C° 0.2 mm 1 mps 726 mmHg 74%
    21:00 +23°C° 0.2 mm 1 mps 726 mmHg 77%
    22:00 +22°C° 0.2 mm 1 mps 726 mmHg 80%
    23:00 +22°C° 0.1 mm 1 mps 726 mmHg 81%

    22 August, Wednesday

    Time Temperature Precipitation Wind Pressure Humidity
    00:00 +21°C° 0.1 mm 1 mps 726 mmHg 82%
    01:00 +21°C° 0.1 mm 1 mps 726 mmHg 83%
    02:00 +21°C° 0.1 mm 1 mps 726 mmHg 83%
    03:00 +20°C° 0.1 mm 1 mps 726 mmHg 84%
    04:00 +20°C° 0.1 mm 1 mps 726 mmHg 84%
    05:00 +21°C° 0 mm 1 mps 726 mmHg 82%
    06:00 +22°C° 0 mm 1 mps 726 mmHg 79%
    07:00 +23°C° 0 mm 1 mps 726 mmHg 77%
    08:00 +26°C° 0.1 mm 1 mps 726 mmHg 68%
    09:00 +28°C° 0.1 mm 1 mps 726 mmHg 60%
    10:00 +30°C° 0.1 mm 1 mps 726 mmHg 51%
    11:00 +31°C° 0.3 mm 1 mps 726 mmHg 50%
    12:00 +31°C° 0.3 mm 1 mps 726 mmHg 48%
    13:00 +32°C° 0.3 mm 2 mps 725 mmHg 47%
    14:00 +31°C° 0.4 mm 1 mps 725 mmHg 48%
    15:00 +31°C° 0.4 mm 1 mps 725 mmHg 49%
    16:00 +31°C° 0.4 mm 1 mps 725 mmHg 50%
    17:00 +29°C° 0.3 mm 1 mps 725 mmHg 56%
    18:00 +25°C° 0.3 mm 0 mps 724 mmHg 61%
    19:00 +23°C° 0.3 mm 0 mps 724 mmHg 66%
    20:00 +22°C° 0.5 mm 0 mps 724 mmHg 69%
    21:00 +23°C° 0.5 mm 1 mps 725 mmHg 71%
    22:00 +23°C° 0.5 mm 1 mps 725 mmHg 73%
    23:00 +22°C° 0.1 mm 1 mps 725 mmHg 75%
    Show more